Time,TemperatureF,DewpointF,PressureIn,WindDirection,WindDirectionDegrees,WindSpeedMPH,WindSpeedGustMPH,Humidity,HourlyPrecipIn,Conditions,Clouds,dailyrainin,SoftwareType,DateUTC
2013-05-20 00:09:00,67.0,64.0,30.03,ENE,68,0.0,4.0,91,0.00,,,0.00,weatherlink.com 1.10,2013-05-20 04:09:00,
2013-05-20 00:24:00,66.9,64.0,30.03,SE,141,2.0,4.0,91,0.00,,,0.00,weatherlink.com 1.10,2013-05-20 04:24:00,
2013-05-20 00:39:00,66.9,64.0,30.03,East,92,1.0,4.0,91,0.00,,,0.00,weatherlink.com 1.10,2013-05-20 04:39:00,
2013-05-20 00:54:00,66.9,64.0,30.02,East,80,2.0,3.0,91,0.00,,,0.00,weatherlink.com 1.10,2013-05-20 04:54:00,
2013-05-20 01:09:00,66.8,64.0,30.01,ESE,103,0.0,2.0,91,0.00,,,0.00,weatherlink.com 1.10,2013-05-20 05:09:00,
2013-05-20 01:24:00,66.4,64.0,30.00,East,92,0.0,2.0,93,0.00,,,0.00,weatherlink.com 1.10,2013-05-20 05:24:00,
2013-05-20 01:39:00,66.1,64.0,30.00,ENE,59,0.0,2.0,93,0.00,,,0.00,weatherlink.com 1.10,2013-05-20 05:39:00,
2013-05-20 01:54:00,65.9,64.0,29.99,SE,143,0.0,3.0,94,0.00,,,0.00,weatherlink.com 1.10,2013-05-20 05:54:00,
2013-05-20 02:09:00,65.7,64.0,29.98,SSE,153,0.0,3.0,94,0.00,,,0.00,weatherlink.com 1.10,2013-05-20 06:09:00,
2013-05-20 02:24:00,65.4,64.0,29.98,SSE,153,0.0,1.0,94,0.00,,,0.00,weatherlink.com 1.10,2013-05-20 06:24:00,
2013-05-20 02:39:00,65.2,64.0,29.98,SSE,153,0.0,0.0,95,0.00,,,0.00,weatherlink.com 1.10,2013-05-20 06:39:00,
2013-05-20 02:54:00,64.9,64.0,29.97,SSE,153,0.0,0.0,95,0.00,,,0.00,weatherlink.com 1.10,2013-05-20 06:54:00,
2013-05-20 03:09:00,64.7,64.0,29.98,East,82,0.0,2.0,96,0.00,,,0.00,weatherlink.com 1.10,2013-05-20 07:09:00,
2013-05-20 03:24:00,64.6,63.0,29.97,East,85,0.0,1.0,95,0.00,,,0.00,weatherlink.com 1.10,2013-05-20 07:24:00,
2013-05-20 03:39:00,64.3,63.0,29.97,East,85,0.0,0.0,95,0.00,,,0.00,weatherlink.com 1.10,2013-05-20 07:39:00,
2013-05-20 03:54:00,64.0,63.0,29.97,East,85,0.0,1.0,96,0.00,,,0.00,weatherlink.com 1.10,2013-05-20 07:54:00,
2013-05-20 04:09:00,63.9,63.0,29.98,East,85,0.0,0.0,96,0.00,,,0.00,weatherlink.com 1.10,2013-05-20 08:09:00,
2013-05-20 04:24:00,63.4,62.0,29.97,East,85,0.0,0.0,95,0.00,,,0.00,weatherlink.com 1.10,2013-05-20 08:24:00,
2013-05-20 04:39:00,62.8,61.0,29.97,East,84,0.0,0.0,95,0.00,,,0.00,weatherlink.com 1.10,2013-05-20 08:39:00,
2013-05-20 04:54:00,62.2,61.0,29.98,East,85,0.0,0.0,95,0.00,,,0.00,weatherlink.com 1.10,2013-05-20 08:54:00,
2013-05-20 05:09:00,61.9,61.0,29.97,East,85,0.0,0.0,96,0.00,,,0.00,weatherlink.com 1.10,2013-05-20 09:09:00,
2013-05-20 05:25:00,61.4,60.0,29.98,East,85,0.0,0.0,96,0.00,,,0.00,weatherlink.com 1.10,2013-05-20 09:25:00,
2013-05-20 05:40:00,61.2,60.0,29.98,East,85,0.0,0.0,97,0.00,,,0.00,weatherlink.com 1.10,2013-05-20 09:40:00,
2013-05-20 05:55:00,60.9,60.0,29.98,East,85,0.0,0.0,97,0.00,,,0.00,weatherlink.com 1.10,2013-05-20 09:55:00,
2013-05-20 06:10:00,60.9,60.0,29.99,East,84,0.0,0.0,97,0.00,,,0.00,weatherlink.com 1.10,2013-05-20 10:10:00,
2013-05-20 06:25:00,61.3,61.0,30.00,East,85,0.0,1.0,97,0.00,,,0.00,weatherlink.com 1.10,2013-05-20 10:25:00,
2013-05-20 06:40:00,61.8,61.0,30.01,East,85,0.0,0.0,98,0.00,,,0.00,weatherlink.com 1.10,2013-05-20 10:40:00,
2013-05-20 06:55:00,62.0,61.0,30.01,East,85,0.0,0.0,97,0.00,,,0.00,weatherlink.com 1.10,2013-05-20 10:55:00,
2013-05-20 07:10:00,63.3,63.0,30.01,East,85,0.0,1.0,98,0.00,,,0.00,weatherlink.com 1.10,2013-05-20 11:10:00,
2013-05-20 07:25:00,63.9,63.0,30.00,East,85,0.0,1.0,98,0.00,,,0.00,weatherlink.com 1.10,2013-05-20 11:25:00,
2013-05-20 07:40:00,64.4,64.0,30.00,East,85,0.0,1.0,97,0.00,,,0.00,weatherlink.com 1.10,2013-05-20 11:40:00,
2013-05-20 07:55:00,65.7,65.0,30.01,East,85,0.0,1.0,97,0.00,,,0.00,weatherlink.com 1.10,2013-05-20 11:55:00,
2013-05-20 08:10:00,66.9,65.0,30.01,North,355,0.0,1.0,93,0.00,,,0.00,weatherlink.com 1.10,2013-05-20 12:10:00,
2013-05-20 08:25:00,67.4,65.0,30.00,NE,43,1.0,1.0,93,0.00,,,0.00,weatherlink.com 1.10,2013-05-20 12:25:00,
2013-05-20 08:40:00,68.9,66.0,30.01,East,100,1.0,-999.0,89,11.49,,,0.00,weatherlink.com 1.10,2013-05-20 12:40:00,
2013-05-20 08:55:00,69.2,66.0,30.01,East,100,0.0,1.0,88,0.00,,,0.00,weatherlink.com 1.10,2013-05-20 12:55:00,
2013-05-20 09:10:00,70.1,66.0,30.01,East,95,2.0,4.0,87,0.00,,,0.00,weatherlink.com 1.10,2013-05-20 13:10:00,
2013-05-20 09:25:00,71.9,67.0,30.01,NW,312,0.0,3.0,84,0.00,,,0.00,weatherlink.com 1.10,2013-05-20 13:25:00,
2013-05-20 09:40:00,72.4,67.0,30.00,SE,140,1.0,3.0,82,0.00,,,0.00,weatherlink.com 1.10,2013-05-20 13:40:00,
2013-05-20 09:55:00,74.0,68.0,30.01,NW,304,0.0,3.0,81,0.00,,,0.00,weatherlink.com 1.10,2013-05-20 13:55:00,
2013-05-20 10:10:00,74.9,69.0,30.00,NNW,330,2.0,2.0,81,0.00,,,0.00,weatherlink.com 1.10,2013-05-20 14:10:00,
2013-05-20 10:25:00,75.1,67.0,30.00,East,94,2.0,2.0,75,0.00,,,0.00,weatherlink.com 1.10,2013-05-20 14:25:00,
2013-05-20 10:40:00,75.3,67.0,29.99,ESE,107,0.0,5.0,75,0.00,,,0.00,weatherlink.com 1.10,2013-05-20 14:40:00,
2013-05-20 10:55:00,75.9,67.0,29.99,East,98,2.0,4.0,75,0.00,,,0.00,weatherlink.com 1.10,2013-05-20 14:55:00,
2013-05-20 11:10:00,74.6,67.0,29.99,ESE,112,1.0,4.0,77,0.00,,,0.00,weatherlink.com 1.10,2013-05-20 15:10:00,
2013-05-20 11:25:00,75.2,67.0,29.99,ENE,74,2.0,3.0,76,0.00,,,0.00,weatherlink.com 1.10,2013-05-20 15:25:00,
2013-05-20 11:40:00,77.4,67.0,29.98,East,79,0.0,5.0,71,0.00,,,0.00,weatherlink.com 1.10,2013-05-20 15:40:00,
2013-05-20 11:55:00,77.5,67.0,29.98,East,98,0.0,4.0,71,0.00,,,0.00,weatherlink.com 1.10,2013-05-20 15:55:00,
2013-05-20 12:10:00,76.2,68.0,29.98,East,98,0.0,4.0,76,0.00,,,0.00,weatherlink.com 1.10,2013-05-20 16:10:00,
2013-05-20 12:25:00,76.5,68.0,29.97,SSE,156,0.0,7.0,75,0.00,,,0.00,weatherlink.com 1.10,2013-05-20 16:25:00,
2013-05-20 12:40:00,77.0,68.0,29.97,SE,140,0.0,3.0,73,0.00,,,0.00,weatherlink.com 1.10,2013-05-20 16:40:00,
2013-05-20 12:55:00,78.9,69.0,29.96,ESE,121,0.0,5.0,71,0.00,,,0.00,weatherlink.com 1.10,2013-05-20 16:55:00,
2013-05-20 13:10:00,79.8,67.0,29.96,SE,137,1.0,5.0,66,0.00,,,0.00,weatherlink.com 1.10,2013-05-20 17:10:00,
2013-05-20 13:25:00,78.5,68.0,29.96,NNE,22,1.0,5.0,70,0.00,,,0.00,weatherlink.com 1.10,2013-05-20 17:25:00,
2013-05-20 13:40:00,78.7,67.0,29.96,SSE,167,0.0,3.0,68,0.00,,,0.00,weatherlink.com 1.10,2013-05-20 17:40:00,
2013-05-20 13:55:00,79.3,69.0,29.95,SSW,202,1.0,7.0,71,0.00,,,0.00,weatherlink.com 1.10,2013-05-20 17:55:00,
2013-05-20 14:10:00,80.3,67.0,29.94,ENE,71,0.0,7.0,65,0.00,,,0.00,weatherlink.com 1.10,2013-05-20 18:10:00,
2013-05-20 14:41:00,81.2,69.0,29.93,SE,125,1.0,8.0,66,0.00,,,0.00,weatherlink.com 1.10,2013-05-20 18:41:00,
2013-05-20 14:56:00,80.5,68.0,29.93,ESE,112,1.0,5.0,65,0.00,,,0.00,weatherlink.com 1.10,2013-05-20 18:56:00,
2013-05-20 15:11:00,81.1,66.0,29.93,ESE,111,1.0,5.0,61,0.00,,,0.00,weatherlink.com 1.10,2013-05-20 19:11:00,
2013-05-20 15:26:00,80.2,67.0,29.93,SE,136,2.0,8.0,64,0.00,,,0.00,weatherlink.com 1.10,2013-05-20 19:26:00,
2013-05-20 15:41:00,80.3,67.0,29.92,SE,129,0.0,7.0,64,0.00,,,0.00,weatherlink.com 1.10,2013-05-20 19:41:00,
2013-05-20 15:56:00,81.7,67.0,29.92,SSE,148,0.0,4.0,62,0.00,,,0.00,weatherlink.com 1.10,2013-05-20 19:56:00,
2013-05-20 16:11:00,81.4,68.0,29.91,East,91,2.0,5.0,63,0.00,,,0.00,weatherlink.com 1.10,2013-05-20 20:11:00,
2013-05-20 16:26:00,80.6,67.0,29.91,East,88,3.0,7.0,63,0.00,,,0.00,weatherlink.com 1.10,2013-05-20 20:26:00,
2013-05-20 16:41:00,80.6,67.0,29.90,NE,51,1.0,4.0,64,0.00,,,0.00,weatherlink.com 1.10,2013-05-20 20:41:00,
2013-05-20 16:56:00,81.0,67.0,29.90,SE,146,1.0,6.0,63,0.00,,,0.00,weatherlink.com 1.10,2013-05-20 20:56:00,
2013-05-20 17:11:00,80.2,67.0,29.90,NE,56,0.0,3.0,65,0.00,,,0.00,weatherlink.com 1.10,2013-05-20 21:11:00,
2013-05-20 17:26:00,80.2,67.0,29.90,South,169,0.0,3.0,65,0.00,,,0.00,weatherlink.com 1.10,2013-05-20 21:26:00,
2013-05-20 17:41:00,80.5,67.0,29.90,SE,132,0.0,5.0,64,0.00,,,0.00,weatherlink.com 1.10,2013-05-20 21:41:00,
2013-05-20 17:56:00,80.8,67.0,29.90,ESE,102,0.0,4.0,63,0.00,,,0.00,weatherlink.com 1.10,2013-05-20 21:56:00,
2013-05-20 18:11:00,80.2,67.0,29.89,SE,129,1.0,3.0,64,0.00,,,0.00,weatherlink.com 1.10,2013-05-20 22:11:00,
2013-05-20 18:26:00,80.2,66.0,29.89,East,81,2.0,3.0,63,0.00,,,0.00,weatherlink.com 1.10,2013-05-20 22:26:00,
2013-05-20 18:41:00,80.3,67.0,29.89,East,94,2.0,5.0,64,0.00,,,0.00,weatherlink.com 1.10,2013-05-20 22:41:00,
2013-05-20 18:56:00,80.0,67.0,29.89,ENE,78,0.0,5.0,65,0.00,,,0.00,weatherlink.com 1.10,2013-05-20 22:56:00,
2013-05-20 19:11:00,80.1,67.0,29.89,East,88,1.0,3.0,64,0.00,,,0.00,weatherlink.com 1.10,2013-05-20 23:11:00,
2013-05-20 19:26:00,78.6,67.0,29.89,ENE,75,1.0,3.0,68,0.00,,,0.00,weatherlink.com 1.10,2013-05-20 23:26:00,
2013-05-20 19:41:00,77.8,67.0,29.90,ENE,78,0.0,1.0,70,0.00,,,0.00,weatherlink.com 1.10,2013-05-20 23:41:00,
2013-05-20 19:56:00,77.0,67.0,29.90,ENE,78,0.0,1.0,71,0.00,,,0.00,weatherlink.com 1.10,2013-05-20 23:56:00,
2013-05-20 20:11:00,76.4,67.0,29.90,ENE,78,0.0,1.0,73,0.00,,,0.00,weatherlink.com 1.10,2013-05-21 00:11:00,
2013-05-20 20:26:00,75.5,67.0,29.89,ENE,78,0.0,0.0,75,0.00,,,0.00,weatherlink.com 1.10,2013-05-21 00:26:00,
2013-05-20 20:41:00,74.7,67.0,29.89,ENE,78,0.0,0.0,77,0.00,,,0.00,weatherlink.com 1.10,2013-05-21 00:41:00,
2013-05-20 20:56:00,73.6,67.0,29.90,ENE,78,0.0,1.0,79,0.00,,,0.00,weatherlink.com 1.10,2013-05-21 00:56:00,
2013-05-20 21:11:00,72.9,67.0,29.90,ENE,78,0.0,0.0,81,0.00,,,0.00,weatherlink.com 1.10,2013-05-21 01:11:00,
2013-05-20 21:26:00,71.5,66.0,29.89,ENE,78,0.0,0.0,83,0.00,,,0.00,weatherlink.com 1.10,2013-05-21 01:26:00,
2013-05-20 21:41:00,71.6,66.0,29.89,ENE,74,0.0,1.0,83,0.00,,,0.00,weatherlink.com 1.10,2013-05-21 01:41:00,
2013-05-20 21:56:00,71.7,66.0,29.90,ENE,74,0.0,0.0,83,0.00,,,0.00,weatherlink.com 1.10,2013-05-21 01:56:00,
2013-05-20 22:11:00,71.3,66.0,29.90,ENE,74,0.0,0.0,84,0.00,,,0.00,weatherlink.com 1.10,2013-05-21 02:11:00,
2013-05-20 22:26:00,70.7,66.0,29.91,ENE,74,0.0,0.0,85,0.00,,,0.00,weatherlink.com 1.10,2013-05-21 02:26:00,
2013-05-20 22:41:00,70.0,66.0,29.90,ENE,74,0.0,0.0,86,0.00,,,0.00,weatherlink.com 1.10,2013-05-21 02:41:00,
2013-05-20 22:56:00,69.4,65.0,29.91,ENE,74,0.0,0.0,87,0.00,,,0.00,weatherlink.com 1.10,2013-05-21 02:56:00,
2013-05-20 23:11:00,69.0,65.0,29.90,ENE,74,0.0,0.0,88,0.00,,,0.00,weatherlink.com 1.10,2013-05-21 03:11:00,
2013-05-20 23:26:00,68.6,66.0,29.90,ENE,74,0.0,0.0,90,0.00,,,0.00,weatherlink.com 1.10,2013-05-21 03:26:00,
2013-05-20 23:41:00,68.0,65.0,29.90,ENE,74,0.0,0.0,90,0.00,,,0.00,weatherlink.com 1.10,2013-05-21 03:41:00,
2013-05-20 23:56:00,67.6,65.0,29.89,ENE,74,0.0,0.0,91,0.00,,,0.00,weatherlink.com 1.10,2013-05-21 03:56:00,